This demonstration page uses our WeatherBlox Daily Observations layout. Learn more.

Left ArrowRight Arrow

Hourly Observations for October 15, 2018

Temp ( °F °C ) Dew Point ( °F °C ) Humidity (%) Winds ( mph kmh ) Pressure ( in mb ) Visibility ( mi km ) Precip ( " mm )
12:57 am 00:57 Cloudy 29 -1.7 25 -3.9 85 85 NW 5 7 30.44 1031 10 16 0.00 0.00
2:57 am 02:57 Cloudy 30 -1.1 22 -5.6 72 72 NNW 10 17 30.43 1031 10 16 0.00 0.00
3:57 am 03:57 Clear 25 -3.9 19 -7.2 78 78 WNW 3 6 30.43 1031 10 16 0.00 0.00
4:57 am 04:57 Clear 24 -4.4 19 -7.2 81 81 W 5 7 30.43 1031 10 16 0.00 0.00
5:57 am 05:57 Clear 24 -4.4 19 -7.2 81 81 W 7 11 30.44 1031 10 16 0.00 0.00
6:57 am 06:57 Clear 22 -5.6 18 -7.8 85 85 WNW 8 13 30.45 1031 10 16 0.00 0.00
7:57 am 07:57 Sunny 22 -5.6 18 -7.8 85 85 WNW 9 15 30.45 1031 10 16 0.00 0.00
8:57 am 08:57 Sunny 28 -2.2 21 -6.1 75 75 WNW 9 15 30.45 1031 10 16 0.00 0.00
9:57 am 09:57 Sunny 33 0.6 21 -6.1 61 61 W 8 13 30.45 1031 10 16 0.00 0.00
10:57 am 10:57 Sunny 34 1.1 21 -6.1 59 59 W 9 15 30.46 1031 10 16 0.00 0.00
11:57 am 11:57 Sunny 36 2.2 21 -6.1 55 55 W 10 17 30.45 1031 10 16 0.00 0.00
12:57 pm 12:57 Sunny 38 3.3 21 -6.1 51 51 WSW 12 19 30.43 1031 10 16 0.00 0.00
1:57 pm 13:57 Sunny 41 5 22 -5.6 47 47 W 12 19 30.41 1030 10 16 0.00 0.00
2:57 pm 14:57 Sunny 44 6.7 21 -6.1 40 40 W 12 19 30.37 1029 10 16 0.00 0.00
3:57 pm 15:57 Sunny 46 7.8 22 -5.6 38 38 WSW 12 19 30.35 1028 10 16 0.00 0.00
4:57 pm 16:57 Sunny 48 8.9 20 -6.7 33 33 W 12 19 30.33 1027 10 16 0.00 0.00
5:57 pm 17:57 Sunny 48 8.9 21 -6.1 34 34 W 8 13 30.32 1027 10 16 0.00 0.00
6:57 pm 18:57 Clear 45 7.2 24 -4.4 44 44 W 6 9 30.33 1027 10 16 0.00 0.00
7:57 pm 19:57 Clear 37 2.8 25 -3.9 62 62 SW 5 7 30.34 1028 10 16 0.00 0.00
8:57 pm 20:57 Clear 37 2.8 26 -3.3 65 65 SW 8 13 30.33 1027 10 16 0.00 0.00
9:57 pm 21:57 Clear 37 2.8 25 -3.9 62 62 SW 10 17 30.31 1026 10 16 0.00 0.00
10:57 pm 22:57 Clear 35 1.7 24 -4.4 64 64 SW 13 20 30.30 1026 10 16 0.00 0.00
11:57 pm 23:57 Clear 34 1.1 24 -4.4 67 67 WSW 7 11 30.30 1026 10 16 0.00 0.00

Powered by AerisWeather